GEFSNE_500_meanwind_060.txt.gz
Wind_Speed
52 52 51 49 49 49 49 49 49 50 50 52 54 56 58 60 62 63 64 65 66 68 69 70 71 72 73 73 74 75 75 76 77 78 79 81 82 83
53 52 51 50 50 50 50 51 52 54 54 55 57 60 62 64 65 66 67 69 70 71 72 73 74 75 76 77 78 79 79 81 82 83 85 87 88 89
52 51 51 50 52 52 53 54 56 57 58 59 62 64 65 67 69 70 72 73 73 74 75 76 77 79 80 81 82 83 84 86 87 88 89 90 90 90
50 50 50 51 52 53 54 55 58 59 61 62 64 67 69 71 72 74 74 74 75 77 78 80 81 83 84 85 86 87 87 87 87 87 86 84 83 82
48 48 49 51 52 54 56 58 60 62 63 65 67 70 71 74 75 76 76 77 79 80 82 84 85 86 87 87 87 86 84 83 82 79 76 73 71 69
46 47 49 51 53 55 57 59 61 63 66 68 70 72 74 75 77 77 78 79 81 83 85 86 86 86 85 84 81 78 76 73 70 66 63 61 60 60
44 46 50 52 55 57 59 61 63 66 68 71 72 73 74 76 78 79 80 81 82 83 83 82 81 79 77 74 71 68 66 63 60 58 56 55 54 54
43 46 50 53 55 58 60 63 66 68 70 71 71 73 75 78 79 80 81 81 79 79 77 73 72 69 67 64 62 60 58 56 54 52 51 50 50 50
44 47 51 54 56 58 61 64 66 68 70 71 73 75 77 79 80 80 79 78 74 72 69 63 61 59 56 55 55 55 54 53 52 50 48 47 47 48
44 48 50 53 57 59 61 63 65 68 70 73 75 77 78 78 77 75 72 68 63 60 59 55 52 51 51 52 53 54 53 52 50 48 46 45 45 45
46 48 51 54 56 59 61 62 65 69 72 74 75 75 73 71 68 64 61 57 53 51 53 51 49 48 47 48 50 51 50 49 47 45 44 43 42 41
46 49 51 54 56 58 61 63 67 69 71 72 70 67 64 62 60 58 55 52 49 47 47 47 46 46 42 41 43 45 45 45 44 43 41 39 37 36
46 49 51 54 56 59 62 65 67 68 67 64 61 59 58 57 55 51 49 47 46 45 45 43 42 42 41 38 36 39 40 40 39 38 36 34 32 31
46 49 52 54 58 61 64 65 64 62 60 57 55 54 52 49 47 44 44 44 44 43 42 41 39 38 36 34 32 32 34 35 34 32 30 28 27 26
47 50 53 57 60 62 62 61 59 56 53 51 49 47 44 41 40 41 41 41 41 42 40 38 36 35 33 31 28 28 27 27 29 27 25 24 23 23
49 52 56 59 61 60 57 55 52 50 48 45 42 39 37 38 39 39 39 38 37 38 40 38 35 33 31 29 26 23 22 21 22 23 22 21 21 20
51 55 58 58 57 54 52 50 48 45 43 40 37 35 35 37 38 38 37 36 35 35 34 35 34 32 31 29 25 23 20 19 20 20 20 20 20 20
53 56 56 54 52 49 48 46 44 42 39 36 34 34 35 36 36 37 36 35 35 34 33 32 30 28 29 30 29 24 21 20 20 20 19 18 20 22
54 54 53 50 48 47 46 43 40 37 35 33 33 34 34 35 35 35 35 34 33 33 33 32 29 27 25 25 27 27 23 21 21 21 22 20 19 21
54 52 50 48 46 45 42 39 36 34 33 32 32 33 34 34 34 34 34 33 32 31 32 32 30 28 27 24 23 25 26 23 20 20 21 21 21 21
52 49 46 45 43 41 37 34 32 32 31 31 32 33 34 34 34 33 33 32 31 30 30 30 29 29 28 26 24 24 25 26 24 21 19 18 19 21
48 45 44 42 40 36 33 31 31 30 30 31 31 33 34 34 33 32 32 31 30 30 29 29 29 28 28 27 25 23 23 24 25 25 22 19 18 19
45 43 41 39 35 32 30 30 30 29 29 30 31 32 33 33 32 32 31 30 29 28 28 27 28 28 29 28 26 25 24 23 23 24 24 23 20 19

GEFSNE_500_meanwind_066.txt.gz
Wind_Speed
59 58 57 58 57 57 56 56 57 58 58 58 58 58 57 57 57 58 58 58 59 60 61 63 64 65 66 66 68 69 70 71 71 72 73 74 74 75
59 59 59 58 58 58 58 58 58 59 59 58 59 59 58 59 59 59 59 59 60 62 64 65 67 68 69 71 72 73 74 75 75 76 77 78 79 80
58 57 57 56 57 58 59 58 58 58 59 58 58 58 59 60 60 60 60 62 63 65 67 69 71 72 73 74 75 76 77 78 79 80 81 82 84 85
54 54 55 55 55 56 56 57 58 58 59 58 57 59 61 62 62 63 63 65 66 68 70 71 72 73 75 76 77 78 80 81 82 83 84 85 86 87
50 51 51 52 53 53 54 55 56 57 57 57 59 60 61 62 64 65 65 66 68 69 71 72 74 75 77 78 79 80 81 81 82 82 82 82 82 82
45 46 48 49 49 50 51 52 53 55 56 58 59 60 62 64 65 65 65 66 68 70 72 73 75 76 76 77 77 77 76 76 75 74 73 73 72 72
41 42 43 44 45 46 47 49 51 53 54 56 58 61 62 63 64 64 65 66 69 71 72 73 73 72 72 71 71 70 69 68 66 64 63 63 62 62
36 37 38 39 41 43 46 47 48 51 53 55 57 59 60 62 63 65 66 68 69 70 69 68 68 67 67 67 66 65 63 61 60 58 57 56 56 56
31 33 35 37 40 42 44 47 49 51 53 55 56 58 60 62 64 65 67 67 67 67 65 62 63 62 62 62 61 59 57 55 53 52 52 52 52 52
28 31 33 36 38 41 44 47 49 51 53 55 57 59 61 63 65 65 65 64 62 62 60 58 57 56 55 54 53 52 51 49 47 47 46 46 46 46
29 31 34 36 39 42 44 47 49 51 53 56 58 60 62 63 63 62 60 58 56 56 56 54 51 49 48 48 48 48 46 45 43 42 41 41 41 41
29 31 34 37 39 42 44 47 50 52 55 57 59 60 60 60 58 56 55 53 52 51 51 47 45 44 41 42 44 45 44 43 41 40 38 37 36 35
30 33 35 38 41 43 46 48 51 53 55 57 58 58 56 55 53 52 51 49 49 47 46 43 41 41 39 37 40 42 42 40 38 37 36 34 33 32
32 34 37 40 42 45 47 50 52 54 55 55 55 54 53 52 51 49 48 47 46 44 42 40 39 38 38 37 37 38 38 38 36 34 33 31 30 28
34 37 39 42 45 47 49 51 53 54 54 53 53 52 51 49 47 45 44 44 43 42 40 39 38 37 37 37 35 34 33 34 35 33 31 29 27 26
37 39 42 44 47 49 51 52 53 52 52 52 51 49 47 44 42 40 40 40 39 40 40 39 38 37 36 36 34 32 31 30 31 31 29 28 28 25
40 42 45 47 49 51 52 52 52 52 51 49 47 44 41 39 38 37 37 37 37 37 38 38 36 34 34 34 33 31 30 30 30 29 27 26 27 25
42 44 47 49 50 51 51 51 51 49 47 45 42 39 36 35 35 35 35 35 34 35 35 34 32 31 31 31 33 31 30 29 29 28 26 24 25 25
44 46 48 49 50 50 50 49 47 46 44 40 37 34 33 33 33 33 33 33 32 32 33 32 31 30 28 27 29 31 29 28 27 27 26 25 23 24
45 47 49 50 50 50 49 47 46 43 39 35 33 32 31 31 31 31 31 31 31 31 32 32 32 31 30 28 27 30 31 29 26 25 25 24 23 23
47 48 49 50 50 49 47 45 42 38 34 31 31 31 30 30 31 31 31 31 31 31 31 31 33 33 32 30 28 29 30 30 28 25 23 21 21 21
48 49 50 50 49 47 44 41 36 33 30 29 30 30 30 30 30 30 31 31 30 31 31 32 33 33 32 31 29 28 27 28 27 26 24 21 19 19
48 49 50 49 47 44 40 36 32 30 28 28 29 29 29 30 30 30 31 31 31 31 32 32 32 32 32 31 30 28 27 26 25 25 25 24 21 20

GEFSNE_500_meanwind_072.txt.gz
Wind_Speed
63 63 63 63 62 61 60 60 59 59 58 59 59 57 56 56 55 55 54 55 55 54 55 55 55 55 55 55 56 57 57 58 59 60 61 61 62 64
62 62 62 62 61 60 58 57 58 59 58 59 58 57 57 57 57 55 55 56 55 56 56 56 56 57 57 57 57 58 59 60 61 62 63 65 66 67
58 58 58 58 57 57 57 56 56 55 56 57 56 57 57 58 58 58 56 57 56 57 57 58 58 58 58 58 59 59 60 61 62 63 64 66 67 68
50 50 51 51 52 52 53 53 54 54 55 56 56 57 58 58 58 58 57 57 57 57 58 58 58 58 58 58 59 60 61 61 62 63 65 66 68 70
43 43 43 44 45 46 47 48 50 51 51 52 53 54 55 56 57 57 57 57 57 57 57 57 58 58 59 60 61 61 62 63 63 65 66 67 69 70
37 37 36 38 39 40 42 43 44 45 46 48 50 51 52 53 54 55 56 57 57 56 56 57 58 59 61 61 62 62 63 64 64 65 66 66 66 67
30 30 30 32 34 35 37 38 39 41 43 45 47 49 51 52 53 54 54 55 55 56 56 58 59 61 61 61 62 63 63 63 63 63 62 62 62 62
25 26 26 27 28 29 31 34 36 38 41 43 45 48 49 50 51 52 53 54 55 56 57 59 60 60 60 61 61 61 61 60 59 58 57 57 57 58
22 22 22 24 25 26 28 30 34 37 40 42 44 46 47 49 50 52 54 56 57 58 58 58 59 59 60 60 60 59 58 57 55 54 54 54 53 53
22 22 23 24 26 28 29 31 33 36 37 40 43 45 47 49 51 53 55 56 57 58 58 57 57 57 57 57 56 55 55 53 51 50 49 48 47 47
22 22 23 25 26 27 29 32 34 37 39 42 44 47 49 51 53 54 55 56 56 56 56 55 53 51 51 52 52 52 50 49 47 47 45 43 42 41
23 23 24 26 27 30 32 34 37 39 42 44 47 49 51 53 54 54 55 55 54 53 52 50 49 47 44 46 49 49 48 47 45 44 42 40 39 38
25 26 28 29 31 33 35 37 39 42 44 47 49 51 52 52 53 53 54 53 52 50 48 46 45 44 42 40 42 44 44 43 42 41 39 38 37 36
27 28 30 32 34 36 38 40 42 44 46 48 50 51 52 52 53 53 52 51 48 47 45 44 42 40 39 38 37 38 39 39 38 37 36 36 36 35
29 30 32 34 36 38 41 43 44 46 48 49 51 51 52 53 53 52 50 47 45 44 43 41 38 36 36 35 34 35 35 35 35 33 33 34 34 34
31 33 35 37 39 41 43 45 46 48 49 50 51 52 53 53 51 48 45 43 41 40 40 37 35 34 33 33 33 33 33 32 31 31 31 32 33 33
34 36 37 39 41 43 45 47 48 49 50 51 52 52 51 49 46 43 40 38 37 36 36 36 35 33 32 32 32 32 32 31 30 29 29 29 32 32
36 38 40 41 43 45 47 48 49 50 51 51 50 49 47 44 41 38 36 35 34 33 33 33 33 32 31 31 33 32 31 31 30 30 30 29 29 31
38 40 42 43 45 47 48 49 50 51 51 50 48 45 43 40 37 35 34 32 31 31 32 32 32 31 29 28 30 33 32 30 30 30 31 30 28 29
40 42 44 45 47 48 49 50 50 50 49 47 45 43 40 37 34 33 31 31 30 30 31 32 32 31 30 28 27 31 34 32 30 29 30 29 29 28
42 44 45 47 48 49 50 50 50 49 47 45 43 40 37 34 33 32 31 30 30 30 30 31 32 32 31 30 28 28 32 33 32 30 29 27 26 26
44 45 47 48 49 50 50 49 49 47 46 44 41 38 36 34 33 32 32 31 31 31 31 31 32 32 32 31 30 29 30 32 32 32 31 28 24 23
45 46 48 49 49 50 49 48 48 46 44 42 40 37 35 34 33 33 33 32 32 32 32 31 32 32 32 32 31 30 30 30 30 30 30 30 26 23

GEFSNE_500_meanwind_078.txt.gz
Wind_Speed
47 48 49 50 51 52 53 54 55 54 54 54 54 53 52 51 51 50 50 49 51 51 52 53 51 50 49 50 51 51 50 50 51 50 50 51 52 52
46 46 47 48 49 50 50 51 50 50 50 49 49 49 50 49 48 47 46 48 49 48 49 50 51 51 50 51 51 51 50 50 50 52 52 52 53 53
44 44 44 45 46 46 46 46 46 46 45 45 46 46 45 46 46 45 46 46 47 47 48 49 51 53 53 52 52 52 52 52 52 53 53 54 54 55
41 41 42 42 42 42 42 42 41 41 40 40 39 39 41 43 43 45 46 47 47 47 48 48 49 51 52 52 52 52 53 53 54 54 54 54 55 56
39 39 39 39 38 38 37 37 36 36 36 36 35 35 36 37 39 41 42 44 45 46 46 47 48 50 51 51 51 53 53 53 54 54 54 55 56 57
36 36 36 36 36 35 35 34 34 34 33 33 33 33 33 35 37 38 40 42 44 45 46 47 49 49 50 51 52 52 53 54 54 55 56 56 57 58
34 34 34 34 34 33 33 33 32 31 30 30 31 32 32 33 35 37 39 41 43 45 46 48 50 52 53 53 54 54 54 55 55 56 57 58 58 59
32 32 32 32 32 31 31 31 30 29 29 30 31 32 34 35 37 39 41 42 44 46 48 50 52 53 54 55 55 55 55 55 55 55 56 56 57 57
31 31 31 31 31 31 31 30 30 31 31 32 33 35 36 37 39 41 42 44 46 48 49 51 53 54 54 54 54 54 54 53 53 52 52 53 53 54
31 31 31 31 31 31 31 32 32 32 33 34 35 36 38 39 41 43 45 46 48 50 51 51 52 53 53 53 53 53 52 51 51 51 51 52 52 52
31 31 31 31 31 32 33 33 33 34 35 36 38 39 40 41 43 44 46 47 49 50 50 50 51 52 53 53 53 53 52 51 51 51 51 51 51 50
31 31 31 32 32 33 33 34 35 36 37 38 39 41 42 43 45 46 47 48 50 50 51 51 52 51 51 52 52 52 51 50 49 49 48 48 47 46
31 31 32 33 34 34 35 36 37 38 39 41 42 44 45 46 47 48 49 50 50 51 51 51 50 50 48 47 49 49 48 46 45 44 44 43 42 42
32 33 33 34 35 36 36 37 39 40 42 43 45 46 47 48 49 50 50 50 50 51 51 49 47 46 45 44 43 44 44 43 41 40 39 39 39 38
33 33 34 35 36 37 38 39 41 42 44 45 46 47 48 48 49 50 50 50 50 50 48 45 43 41 40 39 38 39 40 40 39 38 36 36 36 35
34 34 35 36 37 39 40 41 43 44 46 47 47 48 49 49 50 50 50 50 49 47 45 42 40 38 37 36 36 36 36 36 36 35 34 33 34 33
35 36 37 38 39 40 42 43 44 46 47 48 48 49 50 50 50 50 50 48 46 45 43 41 38 36 35 34 34 34 34 33 33 32 32 31 33 33
36 37 38 39 40 42 43 45 46 47 48 49 50 51 51 51 50 50 49 47 44 42 40 39 37 34 33 33 34 33 32 31 31 31 31 30 31 33
37 38 39 40 42 43 45 46 47 48 49 50 51 51 50 50 49 48 47 44 42 40 39 37 36 34 32 31 33 34 33 32 31 31 31 30 30 32
38 39 40 41 43 45 46 47 48 49 50 51 51 50 49 49 48 46 45 43 40 39 38 37 36 34 33 31 30 33 36 34 32 31 31 31 30 31
39 40 41 43 44 46 47 48 49 50 51 51 50 49 48 47 46 45 43 42 40 38 36 36 36 36 34 33 31 32 35 36 33 31 31 30 29 30
40 41 42 43 45 47 48 49 50 51 51 50 49 48 47 46 45 44 42 41 39 37 36 35 36 36 35 34 32 31 32 34 34 32 31 30 28 27
40 42 43 44 46 48 49 50 51 50 50 49 48 47 46 45 44 43 41 40 38 36 35 34 34 34 35 34 32 31 31 31 31 31 31 31 29 28

GEFSNE_500_meanwind_084.txt.gz
Wind_Speed
43 43 43 43 42 43 43 43 43 43 42 43 43 44 43 43 43 43 42 42 41 39 38 38 38 41 41 41 41 42 43 43 41 42 44 44 44 45
42 43 42 42 42 42 42 43 43 42 42 42 41 41 41 40 40 40 39 38 37 36 35 35 36 38 38 39 39 39 40 41 41 42 44 44 45 45
42 41 41 41 41 41 41 41 41 41 41 40 40 39 39 38 38 38 37 35 34 33 33 33 34 35 35 37 37 39 41 40 41 42 43 45 46 47
41 41 40 40 40 40 40 40 40 40 40 39 39 38 37 37 36 36 35 34 33 33 33 33 33 34 35 36 38 39 40 40 40 42 43 45 47 48
39 39 39 39 39 39 39 39 39 39 39 38 37 37 36 35 35 35 34 34 34 34 35 34 34 35 36 37 38 39 39 40 41 43 44 46 47 48
38 38 38 38 38 38 38 38 38 38 38 37 37 36 36 35 35 35 35 35 35 36 36 36 37 38 39 39 40 41 42 43 44 45 46 46 48 49
37 37 37 37 37 37 37 37 37 37 37 36 36 36 36 36 36 37 37 37 37 37 38 38 39 40 41 42 43 44 44 45 46 47 47 48 49 50
36 35 36 36 35 36 36 36 37 36 36 36 36 36 37 37 38 38 38 38 38 39 40 41 42 42 43 44 45 45 45 46 47 48 48 49 50 51
34 35 35 35 35 35 35 35 36 36 36 36 36 37 38 38 39 39 39 40 41 42 43 44 44 45 45 46 46 46 47 47 48 48 49 50 50 50
33 34 34 34 34 34 34 35 35 35 36 37 38 38 39 39 40 41 42 43 44 44 44 45 46 46 47 47 47 47 48 48 48 48 48 49 49 49
33 33 33 33 33 34 34 35 35 36 37 38 39 39 40 41 42 43 44 44 45 46 46 46 47 48 48 49 50 50 49 48 48 48 48 48 48 48
32 32 32 32 33 34 34 35 36 37 38 39 39 40 41 42 43 44 45 46 46 47 48 48 49 49 49 50 51 50 49 47 46 46 45 45 45 45
31 31 32 33 33 34 35 36 37 38 39 40 41 42 43 44 45 46 47 47 48 49 49 49 49 49 49 48 49 49 48 46 44 43 42 42 42 42
30 31 32 33 34 35 36 37 38 39 40 41 42 43 44 45 47 48 48 49 50 50 50 49 48 48 48 47 47 48 47 44 42 41 40 39 38 38
31 31 33 34 35 36 37 38 39 40 41 42 43 44 46 47 48 49 50 50 51 50 49 48 48 48 47 47 45 45 43 42 40 38 37 36 36 35
31 32 33 35 36 37 38 39 39 41 41 42 44 46 47 49 50 50 51 51 51 51 50 49 48 47 46 45 43 41 40 39 38 37 35 34 34 34
32 33 35 36 37 38 39 39 40 41 42 43 45 47 48 50 50 51 51 51 50 50 50 49 47 45 45 43 41 40 39 38 37 35 34 33 33 33
34 35 36 37 38 39 40 40 41 42 43 45 46 48 49 50 51 52 51 51 50 50 49 48 46 44 43 42 41 39 38 36 36 35 33 32 32 34
35 36 37 38 38 39 40 41 42 43 45 46 47 49 50 51 52 52 51 50 49 49 48 47 45 43 41 39 39 40 38 36 35 34 34 32 31 32
36 37 37 38 39 39 40 42 43 45 46 47 48 49 50 51 51 51 50 49 48 48 47 47 45 43 40 38 36 37 38 35 34 33 33 32 31 31
36 37 38 39 39 40 42 43 44 46 46 47 48 49 50 50 50 50 49 48 47 46 45 45 44 43 40 38 35 34 36 36 34 32 31 30 29 29
37 38 39 40 40 42 43 44 45 46 47 47 48 49 50 50 50 50 48 48 47 46 44 43 43 42 41 38 35 33 33 35 35 32 31 29 28 26
39 40 40 41 42 43 45 45 46 47 47 48 49 49 49 49 49 49 48 48 47 45 43 41 41 41 40 38 35 33 32 32 32 32 32 32 28 26

GEFSNE_500_meanwind_090.txt.gz
Wind_Speed
45 44 43 43 42 42 42 42 42 41 40 40 40 40 39 38 38 38 38 38 37 36 35 34 34 34 35 34 33 32 32 32 32 32 33 34 36 38
45 44 43 42 42 42 42 42 41 41 40 40 39 38 38 38 38 38 37 37 36 35 34 33 33 33 33 33 32 32 32 31 32 33 34 34 34 36
44 43 42 42 42 42 42 41 41 40 39 39 38 37 37 37 37 37 37 36 35 34 34 34 33 33 32 32 32 32 32 33 33 34 35 35 36 37
43 42 41 41 41 41 41 40 39 39 38 37 37 37 36 36 37 37 36 35 34 34 34 34 34 33 33 33 33 33 34 35 36 36 36 37 38 38
42 41 40 40 40 39 39 38 38 38 37 37 36 36 36 36 36 36 35 34 34 34 34 34 34 34 34 34 35 36 36 37 38 39 39 39 39 40
41 40 39 39 38 38 37 37 37 36 36 36 35 36 36 36 35 35 35 35 35 35 35 35 36 36 36 37 38 38 39 39 40 40 41 42 42 43
39 39 39 38 37 37 36 36 35 35 35 35 35 35 35 35 35 35 35 35 35 36 36 37 37 38 38 39 40 40 41 41 42 42 43 44 44 45
39 38 37 36 36 36 35 34 34 34 34 34 35 35 35 34 34 35 35 36 36 37 38 38 39 40 40 41 41 42 43 43 44 44 45 45 46 47
37 37 36 35 35 35 34 34 34 34 34 34 34 34 34 34 35 35 36 37 38 38 39 40 40 41 42 43 43 43 43 44 45 45 46 47 47 48
36 35 35 35 34 33 33 33 33 34 33 33 34 34 34 35 36 36 37 38 39 39 40 41 42 43 44 44 44 45 45 45 46 46 46 47 47 47
35 34 34 33 33 33 33 33 33 33 33 33 34 34 35 36 37 37 38 39 40 41 41 43 44 45 46 46 46 47 47 47 46 46 46 47 47 47
34 33 33 32 32 33 33 33 33 33 33 34 34 34 35 36 37 38 39 40 40 41 43 44 45 46 47 48 48 48 48 47 46 45 46 46 46 47
32 32 32 32 32 32 32 32 33 33 33 34 34 36 37 37 38 39 40 41 42 43 44 45 46 47 47 48 48 49 48 46 45 45 45 45 45 45
31 31 31 31 32 32 32 32 33 33 34 35 36 37 37 38 39 40 41 42 43 44 45 46 46 47 47 48 48 49 47 46 45 44 44 44 44 44
30 31 31 31 31 31 32 33 34 34 35 36 37 37 38 39 39 40 42 43 44 45 45 46 47 47 47 47 48 47 46 46 45 43 42 42 41 40
31 31 31 31 31 32 33 34 34 35 36 37 38 38 39 39 40 41 43 44 45 45 45 46 47 47 47 47 46 46 45 44 44 43 42 41 40 38
31 31 31 31 32 33 34 35 35 36 37 38 38 39 39 40 41 42 44 45 45 45 46 46 47 47 46 46 46 45 45 44 43 42 40 39 38 37
31 31 32 32 33 34 35 36 36 37 38 38 39 39 40 41 42 43 44 45 45 46 47 47 46 46 45 45 46 45 44 43 41 40 38 36 36 36
32 32 33 34 35 35 36 37 37 38 38 39 39 40 41 43 44 45 45 46 46 46 47 46 45 45 44 44 44 45 43 41 39 38 36 34 34 35
33 34 35 35 36 37 37 38 38 38 39 40 41 42 43 44 45 45 46 46 46 46 46 46 45 44 43 43 42 43 43 40 38 36 35 33 32 32
35 35 36 37 37 38 38 39 39 40 40 41 42 43 43 44 45 46 46 46 46 45 45 45 45 44 43 42 41 41 41 40 37 35 33 32 31 31
36 37 37 37 38 39 39 40 40 41 41 42 43 44 44 45 46 46 45 45 45 45 44 45 45 44 44 42 41 39 39 39 37 35 33 31 29 28
37 37 38 39 40 40 41 41 41 42 42 43 43 44 45 46 46 46 45 45 44 44 44 45 45 45 44 43 41 39 39 38 36 35 34 32 29 27

GEFSNE_500_meanwind_096.txt.gz
Wind_Speed
50 50 49 47 47 46 46 46 45 43 42 41 41 41 41 41 40 38 38 37 36 35 34 34 33 33 32 32 31 31 30 30 29 28 27 27 27 27
49 48 47 47 47 46 46 45 43 43 42 42 41 40 41 40 38 38 37 36 35 34 34 33 33 32 31 31 31 31 30 30 30 29 29 28 28 28
48 47 47 47 46 45 44 44 43 43 42 42 42 40 40 38 38 37 36 35 34 33 33 33 32 31 31 31 31 31 31 31 31 30 30 30 31 31
48 47 47 46 46 45 44 43 43 42 42 41 40 39 38 37 36 36 35 34 33 33 33 32 32 32 31 31 31 31 31 31 32 32 32 32 33 33
47 46 45 45 44 43 43 43 42 41 40 39 39 38 37 36 35 34 34 33 32 32 32 32 32 32 32 32 32 32 33 33 33 34 34 35 35 35
46 45 44 43 43 42 42 41 40 39 38 38 38 37 36 35 34 33 33 33 32 32 32 32 32 32 32 33 33 34 34 35 35 36 36 36 37 37
45 44 43 42 41 41 40 39 39 38 38 37 37 35 34 33 33 33 33 33 33 32 32 32 33 33 34 34 35 35 36 36 37 37 38 38 38 38
43 42 41 40 40 39 39 38 38 37 37 36 35 34 33 33 33 33 33 33 33 33 33 33 34 34 35 35 36 36 37 37 38 39 39 40 40 41
40 40 39 39 38 38 38 37 37 36 35 35 34 33 33 33 33 33 33 33 33 33 33 34 35 35 36 36 37 37 38 39 39 40 41 41 42 43
39 39 38 38 38 38 37 36 35 35 34 34 33 33 33 33 33 33 33 33 33 34 34 35 35 36 37 37 38 39 39 40 41 41 42 42 43 44
38 38 37 37 37 36 35 35 34 34 33 33 32 32 33 33 33 33 33 33 34 35 35 36 36 37 38 39 39 40 40 41 41 42 43 43 43 44
37 36 36 36 36 35 34 34 33 33 32 32 32 32 33 33 33 33 33 34 35 36 36 36 37 38 39 40 41 41 41 41 42 43 43 44 44 43
35 35 35 35 34 34 33 32 32 32 31 31 31 32 33 33 33 34 34 35 36 36 37 38 38 39 40 41 41 42 42 42 43 44 44 44 43 43
34 34 33 33 33 32 31 31 31 31 31 31 32 32 33 33 34 35 35 36 37 37 38 39 39 40 40 41 41 42 43 43 43 43 43 43 43 42
33 33 33 32 32 31 30 30 31 31 31 32 32 33 33 34 35 36 37 38 38 39 39 39 40 41 41 41 41 43 43 44 44 43 43 42 42 41
32 32 32 31 31 31 31 31 31 31 32 32 33 33 34 35 36 37 38 38 39 39 40 40 40 41 41 42 43 43 44 43 43 42 42 42 41 41
30 31 31 31 31 31 31 31 31 32 32 33 33 34 35 36 37 38 38 38 39 40 40 41 41 41 42 42 43 44 44 43 42 41 41 41 41 41
30 31 31 31 31 31 31 32 32 33 33 34 35 35 36 37 38 38 39 39 40 40 40 41 41 41 42 43 43 44 44 42 42 41 41 40 40 41
30 30 30 31 31 32 32 33 33 34 35 35 36 37 37 38 39 39 40 40 40 40 41 41 41 41 42 43 43 44 43 42 42 41 41 40 40 40
30 30 31 31 32 32 33 34 35 35 36 37 37 38 38 39 39 40 40 40 40 41 41 41 41 42 42 42 42 44 44 42 42 42 41 41 40 40
31 31 32 32 33 33 34 35 36 37 37 38 38 39 39 39 40 40 41 41 41 41 41 42 42 42 42 42 42 43 44 43 43 42 41 40 39 39
32 32 33 34 34 35 36 36 37 37 38 38 39 40 40 41 41 41 42 42 42 42 42 42 43 43 42 42 42 42 43 44 43 42 41 40 38 36
33 34 34 35 36 36 36 37 38 38 39 39 40 41 41 42 42 42 42 43 42 42 42 42 43 43 43 43 42 42 42 43 43 42 42 41 39 36

GEFSNE_500_meanwind_102.txt.gz
Wind_Speed
50 50 50 48 48 48 48 48 47 46 45 44 44 43 43 42 40 40 39 38 37 36 35 33 32 31 30 28 28 27 26 25 24 24 23 23 24 24
51 50 49 49 48 48 47 46 46 46 45 44 44 43 42 41 40 39 39 38 37 35 33 32 31 30 28 27 27 26 25 25 24 24 24 24 24 25
49 49 49 49 48 47 46 45 44 44 44 44 43 43 41 41 40 39 38 37 35 34 32 31 30 29 28 27 26 26 25 25 25 25 25 25 25 25
49 49 48 48 47 46 45 45 44 44 44 44 43 41 40 40 40 38 37 36 34 33 31 30 29 28 28 27 26 26 26 25 26 26 26 26 26 26
48 48 47 46 46 45 45 45 44 44 44 43 42 41 40 39 38 37 36 35 34 32 31 30 29 28 28 27 27 27 27 27 27 27 27 27 28 28
46 46 45 45 45 45 45 44 44 44 43 43 41 40 39 37 36 35 34 33 32 32 31 30 29 29 28 28 27 27 28 28 28 29 29 29 29 30
45 44 44 44 44 44 43 43 43 42 41 40 40 38 37 36 35 34 33 33 32 31 31 30 29 29 29 28 28 28 29 29 29 30 30 31 31 31
44 43 43 43 43 43 42 42 41 40 39 38 38 37 36 35 35 34 34 32 32 31 30 30 29 29 29 28 29 29 30 30 31 31 32 32 33 34
43 43 43 43 42 42 42 41 40 39 38 37 37 36 36 35 34 33 33 32 31 30 30 30 30 29 29 29 30 30 31 32 32 33 33 34 35 35
42 42 42 41 41 41 40 39 38 38 37 36 36 35 34 33 33 32 32 31 31 30 30 30 30 30 30 30 31 32 32 33 33 34 35 35 35 36
41 41 41 41 40 40 39 38 38 37 36 36 35 34 34 33 32 32 31 31 30 30 30 30 30 30 31 31 32 33 33 34 34 35 35 35 36 36
39 39 40 40 40 39 37 37 37 36 35 35 35 34 34 33 31 31 30 30 30 30 30 30 30 31 32 33 34 34 34 35 35 36 36 36 37 37
38 37 37 37 37 37 36 36 35 35 34 34 34 34 32 31 30 31 30 30 30 30 30 31 31 32 33 34 35 35 35 35 36 36 37 37 37 37
36 36 36 35 35 35 35 34 34 34 34 33 33 32 31 31 30 31 30 30 30 30 31 32 32 33 34 35 35 36 36 36 37 37 37 37 37 38
35 34 34 34 34 34 33 33 33 33 32 32 31 31 31 31 31 31 31 31 31 31 32 33 33 34 35 35 36 36 36 36 37 37 37 37 38 38
34 33 33 33 33 32 32 32 32 32 32 32 32 32 31 31 31 31 31 31 32 32 33 34 34 35 35 36 37 37 37 37 37 37 38 38 39 39
33 32 32 31 31 31 31 31 31 31 31 31 31 31 31 31 31 31 32 32 33 34 34 34 35 35 36 37 37 38 38 38 37 38 38 39 40 40
32 32 31 31 31 31 31 31 31 31 31 31 31 32 32 32 32 33 33 34 34 35 35 35 36 36 37 37 38 38 38 38 38 38 39 39 41 40
31 31 31 30 30 31 30 30 31 31 31 32 32 32 33 33 33 34 34 35 35 36 36 37 37 37 37 38 38 39 38 38 38 39 39 39 40 40
32 32 31 31 31 31 31 31 31 31 32 32 33 33 34 34 35 35 36 36 36 37 37 37 38 38 38 38 38 39 39 39 39 39 39 39 39 40
33 33 33 32 32 32 32 33 33 33 33 33 34 34 35 35 35 36 37 37 37 38 38 39 39 38 39 39 39 40 40 40 39 39 39 39 39 39
33 33 33 33 33 34 34 34 34 34 34 34 35 35 36 36 36 37 38 38 39 39 40 40 40 40 39 39 39 40 40 41 40 40 40 39 39 39
34 34 34 35 35 35 35 35 35 35 35 36 36 37 37 37 37 38 39 39 40 40 40 40 41 40 40 40 40 40 41 41 41 41 41 41 40 40